Wind_Speed
19 20 19 20 18 5 1 3 2 2 3 1 1 1 3 2 1 3 4 3 2 2 1 1 3 4 1 2 5 4 3 3 3 4 3 2 13 22 21 24 28 27 27 25 23 21 19 18 18 19 18 17 17 16 16 16 16 16 16 15 15 16 16 16 16 16 15 15 14 14 14 13 13 13 13 12 12 11 11 11 11 11 10 11 11 11 11 11 12 11 13 14 13 13 12 13 13
18 19 19 18 12 4 2 3 3 3 4 2 2 3 4 2 2 3 6 3 4 2 2 4 5 4 3 3 4 2 4 4 2 3 1 9 19 17 19 28 29 28 28 26 24 22 20 20 19 19 18 17 17 16 16 16 16 16 15 15 15 15 15 15 15 15 15 15 14 13 13 13 12 12 12 11 11 11 10 10 10 10 9 9 10 10 10 10 11 12 13 13 12 11 11 12 12
18 19 20 15 7 4 2 3 3 1 4 2 3 3 3 4 1 2 6 5 4 1 4 5 5 3 3 2 2 1 1 3 4 4 4 14 15 14 23 29 29 29 29 28 25 23 22 21 20 20 18 17 16 16 17 16 16 16 15 14 14 14 14 14 15 15 15 14 13 13 12 12 12 11 11 11 11 10 10 9 9 8 7 8 8 8 9 9 10 11 11 11 11 10 11 11 11
16 16 16 9 4 4 3 4 2 1 2 2 3 4 3 5 3 1 5 5 3 3 2 2 1 1 1 1 1 2 1 1 5 4 5 11 11 19 28 28 30 30 29 28 25 24 24 23 22 20 18 18 17 17 16 15 16 15 15 14 14 13 13 14 14 14 14 14 13 12 11 11 11 10 10 10 9 9 8 8 7 6 7 7 7 8 8 9 10 11 12 12 11 11 11 10 10
13 11 9 5 3 2 3 2 1 1 3 2 2 4 3 5 4 2 3 6 5 5 1 2 1 2 1 1 0 1 1 3 5 6 9 10 16 26 28 28 30 29 29 27 26 26 24 24 22 20 19 18 18 17 16 15 15 15 14 14 13 13 13 13 13 13 13 13 12 11 10 10 10 9 8 7 7 7 7 6 5 6 7 7 7 8 8 9 11 12 12 12 11 10 10 9 8
10 7 6 6 3 1 3 1 1 2 4 3 2 7 6 7 5 0 3 5 5 4 2 1 1 0 2 2 1 1 1 5 6 8 14 16 23 28 28 30 29 28 29 27 27 26 25 24 22 21 20 18 18 16 16 16 15 15 14 13 13 12 12 12 12 12 12 11 10 9 9 8 8 7 7 6 6 6 6 5 4 5 6 6 7 7 7 8 9 11 11 11 10 9 9 8 7
9 5 4 5 2 1 4 2 3 3 4 4 3 7 10 10 7 5 1 2 4 5 2 2 3 4 1 2 1 4 5 8 9 12 19 24 28 29 29 29 28 28 27 28 27 26 25 23 23 22 20 19 18 16 16 16 15 14 14 13 12 12 12 12 12 11 10 9 8 7 6 5 5 4 4 4 5 5 5 4 5 6 6 6 6 7 7 7 8 10 11 10 9 8 8 7 7
6 3 1 4 2 3 4 2 3 3 3 4 5 7 11 10 6 8 5 3 4 6 3 5 4 4 1 2 2 6 12 13 14 19 25 29 30 28 27 28 28 27 26 28 27 26 25 24 24 22 20 19 17 17 16 16 15 14 13 13 12 11 11 11 11 10 8 7 6 5 4 3 2 2 2 3 3 4 4 4 5 6 6 6 6 6 6 7 7 9 10 10 9 8 8 7 7
4 3 1 3 2 2 2 1 2 3 5 6 6 9 10 9 6 7 9 4 3 6 6 7 4 2 1 4 3 4 12 18 22 25 29 30 29 26 25 27 28 27 27 27 27 26 25 24 23 22 20 18 17 16 16 16 15 14 13 12 12 11 10 10 10 8 7 6 5 4 4 3 2 1 1 2 2 3 4 5 6 6 7 7 6 6 5 6 7 8 9 10 9 8 7 7 6
3 3 1 2 2 1 1 2 3 3 5 6 6 10 10 8 7 6 8 8 3 5 5 5 4 3 3 5 3 3 10 24 28 26 27 28 26 25 24 26 28 29 29 27 26 26 24 22 22 22 20 19 17 16 16 15 14 14 13 12 11 10 9 9 9 8 7 6 6 6 6 5 4 4 3 2 3 3 4 5 6 7 8 7 6 6 5 5 6 7 8 9 9 8 7 6 6
2 3 3 2 2 3 3 3 4 4 5 4 6 10 8 7 6 7 5 4 1 4 3 3 4 4 5 4 3 6 17 27 30 27 25 25 24 24 25 25 27 30 29 27 27 25 23 21 21 21 20 19 18 17 16 15 14 13 12 11 10 9 8 7 8 8 8 8 8 8 8 7 6 6 6 5 4 4 4 5 6 7 8 7 6 5 4 4 5 6 7 7 7 7 6 6 5
2 2 4 3 3 4 5 4 4 5 6 4 6 8 4 5 6 9 6 2 3 4 2 1 4 4 5 3 2 9 17 22 28 28 24 24 24 24 26 27 27 27 28 28 27 25 24 23 21 21 20 19 18 17 16 14 13 12 12 11 9 8 6 6 8 9 9 9 9 9 9 9 8 8 9 7 6 5 5 5 6 8 8 7 6 5 4 4 4 4 5 6 5 4 4 4 4
3 2 5 3 4 4 4 3 4 3 5 3 6 6 3 6 9 8 3 2 3 3 4 4 7 6 5 2 5 8 12 18 25 26 25 25 25 26 27 28 27 26 28 29 27 26 25 24 23 21 20 19 18 17 16 15 13 12 12 10 8 7 6 7 9 10 10 10 9 10 10 10 10 10 11 10 9 7 5 5 7 8 9 8 6 5 4 4 3 3 4 4 4 3 2 1 1
3 3 5 2 2 4 4 2 3 2 4 5 5 5 4 5 7 6 3 4 3 5 3 6 9 6 4 4 6 5 10 20 25 25 26 25 26 27 27 28 27 27 28 28 28 27 26 24 23 22 21 19 19 18 16 14 13 12 11 10 9 7 7 8 9 10 10 10 10 10 11 11 10 10 11 11 11 9 7 6 6 8 8 8 6 5 4 4 3 3 3 3 2 2 2 2 2
4 2 4 2 1 2 3 3 4 4 5 6 4 3 5 6 5 7 4 5 6 4 4 6 5 2 5 8 7 8 16 25 26 27 28 26 26 26 27 27 26 27 27 26 27 26 25 24 23 22 21 20 19 18 16 14 13 12 11 10 9 8 8 9 10 11 11 10 10 10 11 11 10 9 9 9 10 10 9 7 5 6 7 7 6 5 4 3 2 2 2 2 2 2 2 3 3
3 3 4 2 2 3 3 3 3 3 5 5 4 2 6 11 3 4 4 1 1 2 4 3 1 1 5 7 11 18 26 30 30 31 30 27 26 26 26 26 25 25 24 25 25 25 25 24 22 22 21 20 19 18 16 15 14 13 11 10 9 8 8 10 12 13 12 11 10 10 10 10 10 10 9 9 9 9 9 8 6 4 5 6 5 4 3 2 2 1 1 1 1 2 3 3 3
2 4 2 2 3 4 4 3 4 4 6 5 6 3 5 11 4 2 3 5 5 4 3 2 2 3 5 9 21 31 33 34 34 34 31 27 25 24 23 23 23 23 23 24 25 25 24 23 22 22 21 20 19 17 16 15 14 13 12 11 10 9 9 11 13 13 12 11 10 9 8 9 9 9 9 9 9 8 7 8 7 5 3 3 3 3 3 2 2 2 1 1 2 2 3 4 2
2 3 3 4 4 5 5 7 6 4 5 6 7 4 2 8 5 1 3 6 4 5 5 4 6 7 11 20 31 35 34 36 34 32 28 24 22 20 20 21 22 23 24 24 24 24 24 23 22 22 22 21 19 17 16 15 15 14 13 12 10 10 10 12 13 12 10 9 9 7 6 6 6 6 7 8 9 8 7 7 6 6 5 3 2 2 1 0 1 2 3 3 3 3 4 4 2
3 4 4 6 6 6 6 8 6 4 6 8 9 4 0 6 4 0 1 1 1 4 3 5 10 11 15 22 29 31 31 31 29 28 24 19 18 18 18 19 21 23 24 24 23 23 23 22 22 23 23 21 20 17 16 16 15 14 13 12 11 11 11 12 12 11 9 8 7 6 5 4 3 3 4 5 6 6 6 6 5 5 4 4 3 3 4 4 4 3 3 4 4 5 5 5 4
3 3 4 6 5 6 6 6 7 7 8 8 9 5 3 6 3 0 1 2 4 4 3 5 11 13 15 17 22 25 25 24 22 22 18 13 12 17 20 20 20 22 23 24 24 23 24 24 24 24 24 22 21 19 17 17 15 14 13 12 11 12 12 11 10 9 8 6 5 5 4 2 2 2 2 2 2 3 4 4 4 4 3 3 2 3 3 4 4 4 4 5 5 5 6 6 6
3 4 6 6 6 7 7 8 9 8 7 6 6 6 8 7 1 1 4 3 5 4 3 9 14 17 18 16 18 21 21 19 19 19 17 12 11 14 17 17 18 19 21 23 24 25 25 26 25 25 24 23 22 20 19 18 16 14 13 12 11 12 12 10 9 7 5 4 4 3 2 1 1 1 1 1 1 2 2 2 2 2 2 2 2 2 2 3 3 3 4 4 4 5 5 5 6
2 6 7 6 7 6 7 9 9 8 7 5 5 7 8 6 3 3 8 6 5 2 7 15 19 20 20 19 18 18 18 17 17 17 16 12 8 10 15 18 19 18 20 23 25 27 26 26 26 26 25 23 22 21 20 18 16 15 14 13 12 13 12 10 8 6 5 4 3 3 2 1 2 3 4 3 3 3 2 1 1 1 1 1 1 2 2 3 3 3 4 4 4 4 4 6 7
3 5 5 6 7 6 6 6 8 9 7 7 7 6 4 6 8 2 5 3 2 4 12 17 17 18 21 20 16 15 15 14 15 17 18 18 13 15 21 23 24 23 23 26 28 28 26 25 25 24 24 22 20 19 19 17 16 15 14 14 13 13 12 10 8 7 6 5 5 4 3 2 3 4 6 6 6 5 4 3 2 1 1 1 2 2 2 3 3 4 6 6 5 5 5 6 7
6 5 3 5 7 7 6 6 7 8 9 9 5 4 5 7 7 2 5 2 3 8 14 16 15 19 20 17 15 14 14 14 20 26 31 34 32 30 31 31 30 28 27 28 30 29 27 25 24 23 23 21 20 18 18 16 15 15 15 14 13 13 11 9 9 7 6 6 6 5 4 4 5 6 7 8 7 6 4 3 1 1 1 1 2 2 2 3 4 5 5 6 6 6 6 7 8
8 7 2 3 6 7 8 8 8 7 7 6 2 5 9 7 2 4 5 4 6 9 13 16 16 17 17 16 16 15 14 16 23 31 32 33 38 36 34 34 33 30 29 30 32 31 29 27 25 24 23 22 20 19 18 16 16 16 16 15 14 13 11 9 8 7 6 7 7 6 5 6 7 7 7 8 8 6 4 2 1 1 1 1 1 3 3 4 4 5 5 6 6 6 6 7 7
7 7 4 4 5 6 7 8 11 9 5 3 3 8 11 5 4 5 6 6 5 10 13 15 17 16 14 14 15 16 15 16 21 24 23 27 33 34 32 30 29 29 30 32 33 32 30 29 27 25 23 21 20 19 18 17 17 17 16 15 13 12 10 8 9 8 8 9 8 7 7 7 7 6 6 7 7 5 4 2 1 1 1 1 2 3 4 5 5 5 5 5 5 5 5 6 6
3 7 7 8 7 6 5 6 10 8 4 6 6 11 12 4 3 3 5 8 7 11 13 13 16 15 14 12 11 13 13 17 22 21 20 21 24 29 29 26 25 26 27 30 32 32 30 29 27 25 22 21 20 20 18 17 18 17 15 13 11 10 9 10 10 11 10 9 8 7 7 7 7 6 6 6 5 4 3 2 2 1 1 2 3 3 5 5 5 5 5 4 4 5 5 6 6
4 6 6 9 9 9 7 8 9 4 4 8 9 12 11 3 2 6 9 8 7 12 13 11 13 12 12 11 9 9 9 17 24 21 20 22 24 27 27 27 27 25 24 28 29 29 29 28 27 25 23 22 22 21 20 19 18 16 14 12 10 10 11 12 13 12 11 9 8 8 8 7 6 6 6 5 5 4 3 2 2 2 1 2 3 3 4 5 5 4 3 3 4 5 5 5 6
4 5 4 6 6 9 11 11 8 5 4 7 9 9 9 2 0 7 11 7 5 10 11 10 10 9 9 8 7 6 8 15 19 19 23 27 30 31 30 30 29 26 24 24 26 28 28 28 27 26 25 23 22 22 21 19 17 16 14 12 11 12 13 14 13 12 10 9 8 8 8 7 5 6 6 6 6 6 5 4 3 1 1 1 2 2 3 4 3 3 3 3 4 5 6 7 8
3 4 4 4 3 7 10 9 7 7 6 7 8 4 7 4 3 6 9 8 8 9 9 9 8 7 7 6 6 6 7 12 14 18 24 27 29 31 31 30 29 28 24 22 25 27 27 27 26 25 25 23 22 22 21 19 17 16 14 14 14 14 14 13 12 10 9 8 8 7 6 6 5 6 7 7 7 7 6 5 3 1 1 0 1 1 2 3 3 2 3 3 4 6 7 8 9
1 3 4 4 5 6 7 7 8 7 7 7 9 6 7 5 4 6 8 8 10 10 7 7 7 6 6 6 6 6 6 9 12 17 23 25 28 28 27 27 28 27 22 20 24 25 24 25 25 24 24 23 21 22 22 19 17 17 17 18 16 14 12 11 9 8 8 8 8 6 5 6 5 5 7 8 8 7 6 5 3 2 1 1 1 1 2 3 3 3 3 4 5 6 7 8 10
1 4 4 5 6 4 5 5 10 10 6 8 10 5 4 3 4 6 7 7 9 10 9 7 7 7 7 6 5 6 6 7 10 16 21 23 24 25 25 26 28 27 23 21 23 23 23 24 23 22 22 22 22 23 22 20 19 20 20 18 15 13 11 10 9 8 8 7 6 5 5 6 6 7 8 8 9 8 6 4 3 3 2 1 0 1 2 3 4 4 5 7 7 8 9 9 10
2 5 6 6 7 4 4 5 8 12 6 6 9 5 1 3 6 7 6 7 8 9 10 9 8 7 7 6 5 6 5 6 8 13 18 18 19 22 23 26 28 28 24 21 22 23 22 21 21 21 21 23 24 24 24 22 22 22 19 17 14 12 11 10 9 8 8 8 7 6 7 7 8 9 9 9 9 8 6 5 4 4 3 1 1 2 3 4 5 5 7 9 9 9 10 11 12
5 4 5 4 5 6 4 6 4 10 9 7 7 5 2 3 9 9 5 8 9 9 11 11 9 7 7 6 6 6 6 7 7 10 14 15 15 17 18 21 23 23 21 20 21 22 22 21 21 22 23 25 25 26 26 25 23 20 17 15 13 11 10 10 10 10 10 10 9 9 9 9 10 10 10 9 9 8 7 5 5 4 3 2 3 3 5 6 6 7 8 9 9 10 11 13 14
7 5 4 2 3 7 8 6 4 9 10 8 6 4 2 2 9 7 4 7 8 9 11 11 10 8 7 6 6 7 7 7 6 9 12 13 14 14 14 17 17 18 19 20 21 22 23 23 23 24 25 26 26 27 26 24 21 19 17 15 13 12 12 12 12 12 13 12 12 12 12 12 12 11 11 10 10 9 8 6 6 5 5 4 3 4 5 6 7 8 8 8 8 9 11 12 13
7 5 5 5 4 5 8 8 6 9 9 8 8 6 4 7 9 6 6 6 6 7 9 10 10 10 8 7 7 7 7 6 5 9 11 12 13 13 15 16 16 16 18 20 22 22 24 24 23 25 26 26 26 25 24 22 21 19 17 15 14 15 15 16 16 15 15 13 13 12 12 12 12 12 12 11 11 9 8 7 7 6 5 2 1 3 4 6 6 7 7 7 7 8 10 12 14
5 4 4 7 6 4 5 6 6 8 8 6 6 7 8 11 9 6 6 5 5 8 11 11 11 11 9 9 10 8 6 5 6 9 10 12 14 15 16 17 16 17 19 22 22 22 23 24 23 24 24 25 25 24 22 22 22 20 18 17 17 18 18 18 17 16 15 14 13 11 11 11 11 11 10 10 9 8 7 6 5 4 2 1 3 4 4 5 6 6 7 7 8 10 13 15 15
3 3 3 4 5 5 6 6 5 5 6 1 3 8 8 9 6 4 5 6 7 10 13 13 13 10 7 8 10 8 6 5 7 9 10 14 16 17 19 18 19 21 22 23 24 24 24 24 23 23 23 22 22 22 22 21 20 20 20 20 20 20 18 18 17 15 14 13 12 10 10 9 9 8 7 6 6 6 5 4 3 2 2 2 3 4 4 5 6 6 7 8 9 11 14 17 16
3 3 4 2 3 3 5 4 2 1 3 1 4 8 6 5 4 3 5 6 6 7 8 10 12 11 8 8 9 8 8 7 8 8 10 16 19 19 20 19 20 22 23 23 23 25 25 24 23 23 22 21 21 21 20 18 19 20 21 22 22 20 19 17 15 13 12 12 11 9 8 7 7 6 6 5 4 4 3 3 2 2 2 2 2 3 6 7 8 7 8 7 7 10 14 18 18
5 4 5 2 4 2 3 3 4 6 3 5 7 7 4 3 4 3 4 3 3 4 5 4 7 8 9 10 9 10 11 10 11 7 8 15 19 20 19 19 20 21 21 21 22 23 23 23 22 23 22 21 21 19 18 19 21 22 23 23 22 20 19 16 14 12 11 10 9 8 6 5 4 4 4 4 4 4 4 3 3 2 2 3 3 6 8 9 9 8 8 6 6 9 15 20 20
6 5 6 3 4 2 3 3 3 5 5 6 9 5 1 3 4 3 3 3 5 5 5 5 6 6 6 8 8 9 10 11 11 8 7 12 17 19 19 19 21 21 21 22 22 22 22 22 22 22 21 20 19 16 18 22 25 26 25 24 22 20 18 16 14 12 10 9 7 6 5 3 2 2 3 3 3 4 4 3 3 2 4 5 6 7 9 10 9 9 8 7 9 12 16 21 22
5 5 7 7 5 3 2 4 4 5 3 1 5 3 2 3 5 5 5 5 7 7 8 9 8 7 7 8 8 9 8 9 9 7 8 11 16 19 19 19 21 21 21 22 22 21 21 22 22 21 20 19 17 16 21 25 27 27 27 26 23 21 18 15 14 12 10 9 7 5 4 2 1 1 2 2 2 3 3 4 4 4 5 7 7 9 10 11 11 11 11 11 13 13 14 19 21
4 5 9 9 6 3 2 5 4 3 3 4 3 3 3 3 6 7 7 7 7 8 10 11 10 8 9 8 8 10 9 9 9 7 7 12 17 20 20 20 21 21 21 22 21 21 21 21 21 21 20 19 18 19 24 26 27 28 27 25 23 22 19 15 14 12 10 9 7 5 4 3 2 2 2 3 3 3 4 5 6 7 8 10 10 11 14 14 15 15 14 15 16 14 15 19 20
4 6 11 10 7 5 4 4 3 3 3 2 1 3 2 3 6 7 9 9 9 9 11 12 11 10 10 9 9 10 10 10 11 10 8 11 17 20 20 20 21 21 22 22 21 21 21 20 20 21 20 20 19 22 26 27 28 28 26 24 23 21 20 17 15 13 11 10 8 6 5 4 4 4 4 5 6 6 7 8 8 9 12 13 14 16 17 17 17 17 17 18 19 18 18 21 21
4 7 11 10 8 7 6 4 3 1 4 1 4 2 3 3 4 7 9 9 10 13 15 14 13 13 12 11 11 11 11 11 11 11 9 9 14 18 20 20 21 22 22 22 22 21 20 20 20 20 20 20 20 23 27 27 27 27 25 24 22 20 19 18 17 14 12 10 9 8 7 7 7 7 8 9 10 10 10 11 11 13 16 18 18 20 20 19 19 20 20 20 21 22 21 21 22
4 6 8 6 5 5 5 5 3 1 2 5 7 5 3 3 3 7 9 9 12 14 14 13 13 14 13 11 12 11 10 10 9 10 10 9 12 16 20 22 21 22 23 23 22 21 20 20 19 18 18 20 22 25 26 26 26 26 25 24 23 21 20 19 18 15 13 11 10 10 9 9 10 10 11 12 12 12 13 13 15 17 19 20 20 21 21 21 22 22 22 22 22 23 22 22 23
4 6 6 5 3 1 2 2 2 2 3 7 9 10 7 3 4 7 9 12 16 14 11 11 13 14 14 12 12 11 10 9 8 8 9 11 14 17 20 22 21 21 23 23 22 21 20 20 19 18 19 21 23 25 25 25 24 24 24 23 23 22 22 21 19 17 15 12 12 12 11 12 12 13 14 14 14 15 16 17 18 20 20 21 21 21 21 22 23 22 22 23 23 23 23 24 25
5 5 5 3 2 3 3 3 3 2 7 7 8 11 9 6 4 7 13 15 14 14 13 16 18 17 15 13 11 11 10 9 8 8 9 11 13 17 20 21 21 22 23 23 22 21 21 21 21 21 21 22 23 24 24 24 23 22 23 22 22 23 23 22 20 18 16 14 14 14 14 14 14 15 15 16 17 17 18 20 20 21 21 21 21 21 21 22 22 22 23 23 23 24 23 24 25
6 5 6 5 1 1 1 1 1 4 7 5 8 11 7 6 6 10 18 17 13 15 16 18 20 19 16 14 13 11 10 9 9 9 9 8 10 15 21 22 21 22 23 23 22 22 22 23 24 24 23 22 23 24 24 23 22 23 23 23 23 23 22 21 20 19 17 15 15 16 16 17 17 18 18 19 19 19 20 21 21 22 22 22 21 21 21 21 22 23 24 24 24 24 23 25 26
9 6 7 7 4 4 5 4 2 4 6 4 6 9 4 4 5 9 17 19 17 16 15 13 15 16 15 14 12 11 10 10 9 9 9 8 9 16 21 21 20 21 23 24 23 23 24 25 25 26 24 22 23 23 24 24 23 24 24 23 23 23 22 20 19 19 17 16 16 17 18 18 19 19 20 20 20 20 21 21 22 22 22 21 21 21 22 21 23 24 24 24 24 23 23 25 26
8 5 6 5 5 6 6 5 4 4 4 2 2 5 4 3 4 7 11 15 13 9 6 6 7 8 9 9 10 11 11 10 8 8 9 9 12 17 20 20 20 21 23 24 24 25 26 26 26 27 25 23 23 23 24 24 23 23 22 22 22 22 22 20 19 18 18 17 17 18 19 19 20 21 21 21 21 22 22 22 22 22 22 21 21 22 22 22 23 24 25 25 24 24 25 26 26
5 4 6 5 6 5 2 3 6 4 2 1 2 3 4 4 4 6 4 9 9 7 7 8 9 9 9 9 10 11 10 10 9 8 9 11 13 18 20 20 21 22 23 25 26 26 27 27 26 26 25 24 23 23 23 23 22 21 21 22 23 23 22 21 21 19 18 18 17 18 20 20 20 21 22 22 22 22 22 22 22 22 22 22 21 21 22 22 22 24 25 26 26 25 26 26 25
4 4 6 5 5 6 2 2 2 4 3 3 1 2 4 2 4 6 2 9 9 9 9 10 11 12 12 11 11 11 10 10 10 8 10 12 13 17 20 21 23 23 24 25 26 26 28 28 27 26 25 24 23 22 22 21 21 22 22 23 23 23 22 22 21 20 20 19 18 18 20 20 21 21 22 22 22 22 22 22 23 23 22 22 22 21 21 22 22 23 25 27 27 26 26 26 24
6 6 7 4 4 3 3 2 1 3 3 4 1 3 3 1 2 3 4 9 9 10 11 10 11 13 13 12 11 11 10 10 10 10 10 11 13 16 19 20 23 24 26 26 25 25 28 28 27 27 25 24 23 22 21 21 21 22 23 23 23 22 22 22 21 21 21 19 18 19 20 21 21 21 22 22 22 22 22 22 23 23 22 22 21 21 21 21 22 23 24 25 26 25 26 25 23
6 6 7 6 3 3 1 3 2 1 2 3 3 2 2 4 4 3 7 11 11 11 11 12 13 15 14 12 12 12 11 10 10 10 11 11 14 17 20 21 21 24 26 27 25 25 28 28 27 27 25 24 23 21 21 20 21 22 23 23 23 22 22 22 21 21 20 19 19 20 21 22 21 21 21 21 22 22 23 23 23 23 22 22 21 21 21 20 21 22 22 23 23 23 24 24 22
4 4 6 6 5 5 4 3 3 3 3 2 2 3 3 5 5 9 14 15 15 14 13 14 16 16 14 13 13 13 12 11 10 10 11 12 15 18 21 23 23 24 26 27 26 27 28 27 26 26 24 22 21 20 20 21 21 21 22 22 22 22 22 21 20 20 20 19 20 22 22 22 22 21 21 21 22 22 23 23 23 23 22 22 21 21 20 19 20 20 21 21 20 20 22 21 21
5 4 5 6 3 3 4 3 2 3 3 3 2 1 5 6 5 11 15 15 16 17 16 16 15 15 15 13 14 13 12 11 11 10 11 12 15 18 21 24 25 24 26 27 27 27 27 27 26 25 23 22 21 21 20 21 21 21 22 22 22 22 21 20 20 20 20 21 22 22 22 22 22 21 21 21 22 22 22 22 23 22 21 21 20 20 19 19 20 20 19 19 18 19 20 19 19
7 6 5 6 5 4 4 4 1 2 3 3 4 2 7 6 5 10 13 13 15 18 18 16 14 16 16 14 14 13 12 12 12 11 10 11 14 18 20 23 24 24 25 26 26 27 27 26 26 24 23 23 22 21 21 20 21 21 21 21 21 21 21 21 21 21 21 23 23 22 22 22 22 21 20 20 21 22 21 21 21 21 20 20 20 20 18 18 19 20 18 17 16 17 18 17 17
Wind_Direction
336 332 337 340 332 327 13 54 54 328 63 34 272 179 267 241 354 326 329 330 303 279 234 93 131 126 129 166 182 184 116 143 157 140 205 223 143 150 160 161 157 154 150 147 146 148 149 149 150 147 143 141 139 136 132 132 131 128 126 124 122 119 116 114 113 111 109 109 109 109 109 109 110 111 111 110 107 102 99 95 90 79 71 67 66 64 61 64 64 88 106 101 107 108 109 113 115
340 335 339 342 337 0 336 72 75 330 46 355 283 176 244 302 29 319 311 264 219 269 57 89 93 62 11 74 109 89 47 22 57 121 89 129 135 145 160 159 158 153 148 145 146 151 150 147 150 146 142 142 140 135 133 133 132 129 127 124 122 119 116 114 113 112 110 110 110 110 109 112 113 114 113 112 109 104 99 92 86 75 72 75 71 66 62 66 70 93 109 103 108 111 115 121 123
344 337 340 345 349 28 27 47 61 354 34 319 273 228 255 331 354 326 300 242 199 179 110 103 93 57 356 43 61 88 63 8 78 75 101 136 136 147 158 158 156 151 147 145 150 153 147 147 149 145 144 142 137 135 135 135 133 129 126 124 123 120 117 117 115 114 112 112 111 110 110 111 112 112 113 112 108 103 99 94 88 79 77 83 79 76 73 74 82 99 110 109 113 119 124 126 126
344 340 341 353 15 26 53 39 96 122 344 265 270 239 223 297 257 123 284 257 167 158 133 76 81 1 290 210 285 95 130 63 104 92 129 150 150 152 155 154 151 148 146 147 151 150 146 148 147 145 146 140 136 137 137 136 133 128 128 127 126 123 121 118 115 112 111 111 111 112 111 111 110 110 111 109 107 105 105 102 95 89 86 88 85 82 79 84 99 111 118 120 123 129 131 131 130
340 347 355 26 71 26 81 61 96 75 294 232 276 256 219 259 256 125 251 260 192 183 241 40 315 322 81 186 276 122 158 105 111 119 127 144 151 150 151 151 149 146 146 148 149 147 145 146 146 147 144 139 139 139 139 138 134 132 131 131 128 126 124 120 115 113 110 111 112 112 113 114 113 113 114 112 118 121 121 118 107 103 98 94 83 74 71 83 105 119 126 130 132 136 137 136 133
341 359 20 45 91 160 100 52 304 287 260 203 271 288 293 288 293 9 204 253 242 223 242 128 211 127 69 341 48 110 171 123 118 134 134 140 150 150 150 150 148 146 146 147 147 143 142 146 148 146 141 140 141 142 143 140 137 136 135 134 130 127 125 121 116 114 112 111 111 112 115 116 117 118 123 123 131 141 142 136 124 119 113 102 85 74 71 80 101 120 131 136 139 141 141 139 134
354 357 18 50 42 21 99 162 214 248 250 190 236 289 296 299 313 323 281 204 266 275 263 181 162 118 84 320 51 22 46 113 120 140 144 142 149 150 150 149 146 144 145 146 143 140 144 149 147 142 140 141 144 146 146 142 140 139 138 134 130 130 127 122 116 114 114 112 112 114 116 118 123 127 137 135 136 158 159 134 119 123 125 111 92 82 77 79 95 117 132 139 142 144 143 140 132
12 8 28 78 35 19 98 172 207 221 251 220 242 270 278 292 312 311 296 167 196 255 218 182 156 105 281 356 69 9 46 97 124 139 143 141 147 148 149 148 143 142 144 143 140 142 147 148 143 139 139 143 148 149 147 144 143 141 138 134 135 135 129 124 119 115 112 110 111 111 113 114 124 139 164 161 146 157 149 128 118 116 126 121 103 92 85 86 93 111 130 139 145 148 146 142 135
38 29 36 81 95 43 77 226 252 233 260 266 269 272 278 293 299 295 291 281 195 220 199 172 156 134 212 42 59 357 54 104 124 132 138 141 146 146 148 148 143 140 141 141 142 145 145 144 140 139 142 147 150 149 148 145 143 142 141 143 143 138 132 128 120 114 108 103 103 100 99 96 92 94 144 168 147 138 130 129 127 122 132 129 114 102 93 92 94 105 125 139 148 152 152 148 143
39 13 107 84 111 130 332 269 264 250 255 265 274 278 284 291 288 278 284 294 253 193 183 122 87 106 115 59 37 18 94 120 123 126 135 141 144 145 146 146 145 141 141 142 142 140 139 141 140 141 146 149 150 149 148 146 147 147 148 151 145 140 136 129 118 107 100 96 95 91 87 80 73 72 81 98 96 105 112 119 125 132 139 133 120 109 99 94 95 100 116 138 152 159 161 159 154
43 345 111 109 107 172 218 230 253 256 267 293 292 279 272 271 281 285 297 316 356 127 143 74 84 103 83 57 34 93 118 126 126 128 136 141 143 145 144 143 143 141 140 141 139 138 139 144 144 146 149 150 152 151 150 151 153 154 155 151 142 139 132 119 107 96 93 93 92 88 83 78 74 72 76 82 85 92 102 113 124 139 143 136 124 112 100 94 93 96 107 126 147 165 172 174 168
116 320 77 125 169 190 202 208 242 253 285 317 286 275 270 285 297 296 316 22 58 90 196 197 140 124 77 49 71 108 116 123 129 133 139 141 141 142 143 142 142 141 140 140 140 142 145 147 149 151 152 152 153 152 154 155 158 159 154 147 138 133 121 105 94 91 95 96 95 90 86 82 76 73 75 79 84 92 103 120 135 145 148 143 132 118 107 96 91 90 94 102 118 141 162 181 187
144 159 98 162 193 175 175 190 246 268 295 275 253 271 316 311 295 286 319 36 103 131 243 187 144 109 85 89 115 121 117 127 132 135 139 138 140 142 143 144 144 144 144 145 145 147 149 150 152 154 155 155 154 154 157 158 160 158 150 142 133 124 110 98 93 98 101 101 99 94 90 85 78 74 74 76 79 86 99 120 141 152 154 150 142 131 121 108 98 86 82 82 84 88 99 146 206
159 161 127 190 208 155 164 178 245 243 263 253 246 276 297 282 277 295 358 323 237 184 219 145 139 102 107 132 127 142 133 138 136 134 137 136 140 142 143 146 147 149 149 150 149 150 151 153 154 155 157 156 157 157 160 163 162 156 147 139 129 120 108 98 101 107 107 107 103 98 95 90 85 78 73 74 76 80 87 106 138 155 161 159 154 144 137 125 110 92 80 74 67 55 40 17 351
173 150 104 146 219 183 202 193 203 214 244 248 243 283 296 271 278 319 322 285 266 189 115 125 149 112 161 162 155 163 142 140 137 134 135 135 139 141 144 147 149 152 153 153 152 153 153 154 155 157 159 158 159 161 162 165 162 155 147 138 130 120 108 106 114 115 111 109 105 101 97 93 93 86 77 72 73 75 77 88 117 152 165 168 166 160 155 143 124 108 89 66 47 20 8 356 349
159 105 82 137 214 223 225 200 185 224 251 238 248 333 304 285 308 337 292 182 157 131 111 136 243 96 157 160 149 146 140 139 137 135 133 133 137 140 144 147 150 153 154 156 154 155 155 155 157 159 162 161 163 164 164 165 163 159 149 141 133 122 113 117 122 117 111 107 104 102 96 94 95 93 87 76 69 67 70 79 90 127 162 173 178 179 178 172 165 152 105 44 21 5 358 346 337
94 92 111 180 197 209 198 199 191 207 253 260 277 294 278 289 344 41 335 71 113 114 72 36 359 63 121 137 139 138 137 138 137 134 132 135 138 140 144 146 151 154 158 160 158 158 157 158 160 162 164 165 167 168 167 166 165 163 153 145 137 128 122 127 128 119 112 107 103 100 94 94 92 91 91 84 75 66 64 68 71 84 118 160 182 195 207 222 234 251 279 304 331 339 343 337 323
110 120 171 200 185 200 187 196 199 178 251 270 272 268 236 285 313 65 20 34 84 90 40 29 42 62 106 123 130 134 137 138 139 137 137 141 141 140 145 150 157 161 163 164 162 161 159 160 164 165 166 168 170 171 170 167 170 167 156 150 143 136 130 132 133 124 116 109 103 101 97 93 88 89 88 84 78 72 70 65 61 64 74 92 103 108 97 353 309 302 305 314 319 320 332 337 320
166 141 182 212 186 202 203 196 202 192 234 257 266 279 94 262 279 308 179 309 199 120 60 64 78 83 100 112 123 131 137 141 143 140 137 137 138 140 149 160 168 169 167 164 163 163 162 164 168 169 170 170 171 173 172 171 173 169 161 155 147 144 139 136 137 131 122 112 106 102 100 99 91 95 93 80 66 63 71 74 71 65 64 66 64 62 56 47 37 22 359 349 342 338 341 343 329
179 152 194 223 197 215 228 204 214 220 228 249 265 293 320 270 273 334 187 203 234 189 145 100 105 107 106 112 124 132 138 140 136 127 117 113 136 152 159 169 175 175 170 164 163 167 169 170 171 173 173 173 173 173 173 175 173 168 166 160 153 151 148 143 141 136 128 121 120 112 105 107 89 82 99 89 53 37 52 70 80 79 77 66 61 56 49 41 36 33 23 12 1 356 354 347 330
177 191 201 206 186 210 230 218 225 230 227 237 272 308 299 285 328 152 144 135 259 243 126 122 132 127 126 131 134 138 139 132 125 121 115 122 156 164 165 172 179 179 171 165 167 173 177 176 175 176 177 177 177 175 174 175 170 168 171 165 157 156 153 150 149 145 142 144 145 138 125 112 338 351 13 30 6 353 12 54 68 74 76 68 76 62 44 32 27 34 33 23 6 359 358 349 335
187 217 205 187 171 199 229 218 226 235 234 244 271 284 279 296 325 188 166 179 249 228 122 134 142 139 137 138 138 140 134 127 126 120 118 127 154 167 170 178 184 184 175 170 173 179 182 181 179 179 181 181 181 180 176 173 170 171 172 167 162 159 157 157 159 167 178 188 184 180 189 252 295 313 321 319 306 296 298 325 351 13 44 50 71 52 35 29 29 33 28 21 4 356 359 353 343
224 234 203 191 180 195 227 212 220 230 232 238 244 263 287 304 298 231 154 202 239 135 133 138 136 131 129 130 133 133 130 128 112 111 130 145 164 185 182 185 189 186 180 178 180 184 185 184 184 182 184 184 185 184 177 174 172 171 169 167 166 162 162 163 168 179 198 218 214 206 218 245 264 283 290 289 287 284 283 296 312 321 31 51 56 52 39 27 24 23 17 11 4 358 356 348 342
231 238 207 204 202 205 229 225 221 219 220 229 240 290 284 270 280 21 63 54 124 127 129 127 119 119 123 124 128 129 130 126 121 142 164 167 173 186 186 187 190 186 182 182 184 186 186 187 187 185 187 187 188 187 180 177 172 169 168 168 167 166 168 169 174 183 203 218 214 209 220 237 246 263 274 275 278 282 277 281 303 308 63 58 44 51 47 31 22 20 12 5 2 356 348 337 334
232 228 222 205 211 216 232 242 241 225 216 231 269 281 259 235 201 78 88 105 123 124 120 118 118 122 127 128 131 132 134 139 148 164 175 173 172 180 188 189 189 186 184 184 185 186 185 186 186 187 190 189 190 189 184 179 173 169 168 169 170 174 179 178 185 198 205 206 205 207 219 233 241 253 267 267 268 273 269 258 256 196 128 81 49 45 40 28 16 11 6 3 1 352 343 336 331
225 205 221 233 228 229 228 240 247 238 219 222 262 271 263 227 125 84 112 140 137 126 123 124 127 130 132 133 138 142 147 157 166 168 169 175 173 177 190 194 191 190 186 185 185 183 182 183 184 187 189 189 188 187 185 180 174 170 169 172 177 185 194 196 202 209 204 202 205 211 223 233 236 238 248 254 255 258 249 225 189 152 143 98 46 30 23 11 2 3 2 4 7 0 354 349 342
225 178 210 235 242 254 230 232 248 247 232 211 222 254 262 258 130 114 140 162 154 129 128 132 132 135 138 141 147 152 159 166 167 162 160 174 179 178 188 196 198 196 189 186 185 180 179 181 183 184 185 184 181 181 181 177 173 171 173 179 189 200 207 205 204 203 200 206 214 222 234 236 227 220 222 227 231 232 224 202 161 134 125 82 37 15 6 357 356 2 5 11 14 15 13 3 354
265 191 215 237 239 256 243 244 250 233 233 207 195 237 259 330 83 161 157 169 166 136 133 137 134 137 143 147 153 157 166 166 165 163 163 174 183 183 188 195 198 199 193 188 184 179 179 180 181 182 183 181 179 180 178 175 174 176 181 189 199 206 202 197 194 193 197 208 222 232 242 239 224 210 201 200 200 195 185 168 150 124 78 50 22 7 358 350 353 358 0 9 8 8 6 360 354
255 211 227 248 244 253 241 242 239 186 222 204 171 236 261 331 94 158 150 161 159 136 133 135 136 140 144 148 155 161 169 169 169 173 176 179 182 184 189 194 196 198 196 190 183 180 180 180 181 185 186 184 183 182 178 177 179 183 191 196 196 192 189 189 186 185 197 212 228 239 241 235 219 200 186 177 175 174 170 161 149 114 49 26 3 352 346 341 343 338 340 350 351 351 349 347 345
248 204 195 242 258 255 236 226 215 183 216 191 149 232 257 249 245 167 146 145 139 134 134 134 138 143 148 153 157 167 177 177 181 185 185 184 183 184 188 190 194 196 195 189 184 183 183 183 186 189 189 188 187 185 182 183 188 193 196 191 185 182 182 185 184 187 202 216 228 234 227 216 201 185 173 167 166 165 166 162 155 125 62 30 311 323 333 341 344 337 346 356 356 356 352 346 342
215 177 165 207 223 243 237 205 178 185 222 176 156 229 248 250 242 167 147 148 145 139 140 140 142 146 153 163 162 173 186 188 195 195 193 189 184 184 185 187 192 194 192 188 185 186 186 186 190 192 191 191 192 190 188 190 196 194 188 183 180 183 186 189 189 193 202 210 219 216 205 201 191 169 161 164 164 162 161 157 149 129 116 179 239 322 345 2 12 7 12 16 14 9 1 353 348
166 181 197 208 210 242 269 222 170 188 224 158 166 222 252 250 220 170 151 151 149 141 147 149 148 152 158 170 169 171 181 189 202 203 201 195 184 181 182 186 190 192 191 187 184 185 186 188 193 195 194 194 194 192 191 192 190 185 181 180 183 188 191 192 189 188 188 189 191 185 179 180 172 154 150 154 156 157 156 148 137 135 150 182 171 22 27 40 44 43 38 30 23 16 3 356 354
259 201 207 208 203 208 266 263 186 188 200 171 186 192 187 223 182 174 161 149 149 144 151 156 157 161 162 173 179 173 172 178 200 205 203 198 187 181 183 187 189 190 189 185 181 181 181 185 192 193 190 190 189 187 185 183 179 178 179 179 182 188 190 188 183 176 164 152 149 151 156 158 153 146 141 141 143 143 141 138 136 137 150 170 92 65 66 65 65 60 49 39 28 17 4 357 355
236 202 204 212 186 171 213 279 231 180 188 203 195 173 213 220 165 170 168 152 156 154 157 162 163 164 168 179 186 180 177 181 192 195 195 194 189 185 184 185 185 184 183 182 178 175 174 176 178 179 179 181 180 177 176 174 174 176 177 176 177 178 174 169 167 160 147 139 136 136 141 142 138 136 132 134 136 136 137 135 134 136 147 154 131 101 82 72 63 52 45 40 26 16 9 1 356
196 175 175 183 136 164 198 243 227 170 189 203 162 147 251 177 155 163 163 158 164 166 162 162 164 168 175 184 186 183 182 186 181 173 178 182 180 179 177 178 178 178 177 176 174 171 169 167 166 168 171 172 172 172 172 171 172 173 169 164 164 160 150 146 147 146 140 137 136 134 137 136 134 133 133 136 136 136 138 135 137 142 149 150 135 104 74 56 46 40 40 35 23 17 11 3 355
163 159 148 158 154 191 207 226 217 166 180 204 172 161 165 155 162 166 164 161 160 164 161 160 166 172 178 183 182 179 176 175 155 154 162 166 167 166 166 170 170 168 169 170 169 167 165 165 165 166 168 170 171 171 170 167 165 161 156 152 149 144 140 137 137 138 137 138 138 138 140 139 138 138 139 142 141 141 139 139 144 145 148 150 88 56 44 36 33 31 29 22 12 8 5 1 356
131 123 139 165 175 217 224 230 231 168 166 215 183 154 157 163 167 167 160 155 160 168 168 171 174 174 176 176 175 173 168 160 142 144 151 156 158 157 158 160 157 156 162 168 167 165 166 168 169 168 169 174 174 172 171 167 161 154 151 148 140 136 138 137 133 134 137 137 138 140 141 140 141 139 139 141 140 139 138 140 144 133 122 55 47 55 48 43 41 35 25 15 7 10 14 10 3
122 113 144 172 182 215 230 226 239 186 163 240 138 136 158 166 151 147 156 165 186 183 175 177 177 173 172 171 172 167 157 151 144 144 152 155 152 152 152 155 159 160 163 167 168 169 171 173 174 173 174 176 176 177 174 164 155 156 156 148 140 136 138 140 136 136 141 141 140 142 142 140 141 139 136 137 131 127 131 138 136 109 88 63 69 70 52 34 31 26 15 14 18 27 33 25 18
215 149 139 188 217 221 249 250 328 24 144 182 150 136 149 155 118 134 168 177 196 199 194 186 175 171 173 176 171 163 159 161 163 159 158 154 147 147 150 155 164 166 164 167 169 172 174 176 177 177 178 179 179 178 168 154 152 161 158 149 145 140 137 141 142 142 146 146 143 144 144 141 142 141 135 131 127 124 132 146 137 121 106 82 53 37 30 23 21 15 8 13 28 45 50 41 39
225 175 139 215 241 172 221 248 23 28 92 139 135 121 131 127 98 130 176 178 170 196 218 204 187 185 183 182 174 169 171 171 172 165 153 150 145 147 151 156 161 163 164 166 170 173 174 176 178 179 180 181 183 174 156 154 156 154 151 147 147 144 139 142 146 146 147 146 144 143 142 138 139 137 128 123 124 127 137 146 141 124 92 55 23 23 29 30 27 22 19 26 51 70 67 56 54
220 190 152 189 232 195 204 189 92 42 47 105 109 86 56 152 149 171 168 160 161 185 207 202 208 208 191 189 186 183 181 177 172 162 156 150 145 152 157 158 160 163 166 169 172 174 174 176 178 180 180 180 184 169 150 155 152 146 144 141 141 141 139 144 148 143 139 142 141 134 126 116 119 116 111 109 112 120 122 124 116 88 67 46 35 40 46 48 46 48 50 60 78 86 84 71 62
220 206 168 174 193 218 224 169 136 75 10 266 117 90 285 180 187 195 165 168 175 186 203 206 205 199 194 193 190 192 188 181 177 167 165 153 148 158 161 159 161 164 169 171 173 174 175 177 177 178 179 177 176 164 154 156 153 150 149 145 144 143 140 144 149 145 141 142 137 129 118 99 91 88 99 102 102 104 98 96 88 76 70 63 62 66 71 73 73 76 77 83 89 91 92 80 68
222 208 172 173 174 184 197 171 160 141 210 239 133 142 220 203 213 200 170 179 184 187 205 211 205 197 197 196 190 192 186 180 183 184 175 157 157 166 166 164 164 163 168 171 172 173 175 176 175 177 178 175 171 162 158 158 156 155 154 153 155 155 150 148 152 151 149 144 137 133 124 114 113 108 114 113 106 106 101 98 91 87 87 85 84 85 87 89 89 89 88 88 90 89 87 80 71
231 204 163 165 172 187 202 167 172 194 161 155 132 129 148 214 219 187 170 180 184 195 212 213 206 202 201 199 197 194 186 182 184 189 185 165 167 171 167 165 164 162 165 168 169 170 172 173 173 176 177 173 168 163 162 162 160 158 158 158 158 160 158 152 151 151 147 146 141 135 129 125 126 127 133 127 121 119 113 107 101 100 100 97 96 96 96 97 95 93 90 88 86 82 80 78 73
228 184 151 160 174 185 200 187 204 182 102 176 239 148 128 246 223 166 172 186 191 202 211 210 203 202 203 199 199 197 190 186 186 190 189 171 168 170 166 162 162 163 164 166 168 168 170 171 173 178 177 170 166 165 165 165 165 163 162 161 156 157 157 152 152 150 147 148 140 132 131 132 133 133 133 129 125 121 116 113 110 108 105 102 102 101 100 99 95 92 88 86 84 81 79 78 75
211 147 121 124 152 172 184 195 205 115 98 229 221 175 164 268 225 171 178 196 206 208 209 206 200 201 205 201 196 196 190 186 189 192 191 177 164 162 160 158 159 162 163 164 165 167 169 170 173 177 173 167 166 169 169 166 168 168 166 164 159 156 155 153 151 147 146 146 136 132 132 132 132 131 129 126 124 121 118 117 114 110 107 106 105 102 99 95 92 90 87 85 84 83 80 79 79
172 114 100 86 61 56 124 140 104 100 254 237 201 181 183 239 231 188 190 204 206 203 198 197 198 201 203 200 196 194 188 187 187 184 184 177 163 153 153 155 158 158 159 161 162 166 169 169 170 169 165 166 168 170 170 169 171 172 170 169 165 162 160 156 152 146 144 142 135 134 133 133 131 128 127 125 124 123 121 118 114 113 110 107 105 100 97 94 92 91 88 86 85 84 84 83 83
167 114 128 120 357 352 35 25 62 166 243 242 195 181 184 220 235 195 207 218 208 198 196 193 194 198 198 194 192 192 188 186 182 175 175 170 159 152 151 154 157 157 157 160 162 165 168 167 165 162 161 166 169 171 173 174 175 176 174 173 171 168 164 160 153 146 144 142 139 138 137 135 131 129 128 126 126 126 123 119 116 114 110 106 103 100 97 95 94 92 88 87 86 86 86 84 84
180 127 132 150 191 226 197 241 157 216 247 238 181 170 184 234 236 204 209 215 207 202 203 195 192 193 191 187 186 187 187 184 180 175 174 168 157 154 154 155 158 158 158 161 162 165 166 165 164 162 161 166 171 175 177 177 179 179 178 176 173 168 164 160 154 148 147 146 144 144 142 139 135 132 130 128 128 128 126 122 117 113 109 106 104 101 99 96 94 91 88 88 87 86 85 85 85
183 164 155 166 160 165 198 210 218 243 255 253 172 162 192 270 257 223 210 206 205 207 205 195 191 190 185 182 181 182 185 183 179 174 170 167 159 156 157 159 159 159 159 160 161 163 163 164 164 163 163 168 173 176 178 178 178 178 178 175 170 166 163 160 155 151 149 148 147 146 145 143 139 134 132 130 130 129 126 122 118 112 109 108 106 104 102 97 94 90 87 87 87 88 89 89 88
184 155 134 161 163 167 193 194 198 230 249 275 140 156 190 204 243 255 222 207 201 192 177 156 164 175 172 174 177 181 185 182 178 173 164 162 162 160 159 160 159 158 158 157 158 161 160 161 164 163 163 168 173 174 175 175 173 173 173 171 168 167 164 160 156 153 150 148 147 145 144 142 139 135 133 131 131 129 125 121 118 113 109 108 107 106 103 99 95 90 86 87 89 93 94 91 88
187 121 126 185 182 153 165 181 178 181 204 234 155 189 221 202 255 301 238 196 174 138 128 132 146 160 162 173 184 185 186 180 176 170 157 156 161 161 160 159 158 157 156 155 157 159 158 158 162 163 164 167 169 170 170 170 168 168 169 169 167 167 164 159 155 152 150 148 146 144 143 141 138 136 134 132 131 128 125 122 119 114 111 109 107 107 104 101 97 91 87 90 94 95 92 88 85
164 153 174 193 153 124 110 223 180 112 167 245 182 216 292 295 296 329 118 168 160 141 145 151 158 164 169 182 188 187 186 179 176 173 158 154 159 159 158 158 158 157 156 156 158 159 157 158 160 160 160 162 165 166 166 166 166 165 166 167 168 167 166 161 156 153 150 147 143 142 142 140 138 138 136 133 131 127 124 121 119 116 113 110 108 107 105 102 98 92 91 94 96 93 87 83 82
148 195 188 117 89 101 93 205 309 69 178 265 318 196 252 210 246 336 116 157 165 160 160 160 164 171 179 187 187 187 184 174 172 170 158 155 159 158 154 155 158 157 156 157 159 159 157 159 161 159 157 159 160 161 162 163 165 164 164 166 167 167 165 161 156 153 150 146 141 142 144 142 141 140 138 135 131 128 125 122 120 118 115 113 111 109 107 105 100 96 96 96 94 90 85 80 77
166 182 162 123 140 193 152 173 194 133 183 271 325 297 249 200 195 184 166 173 177 172 168 170 176 183 186 184 183 185 179 170 168 165 161 162 165 161 155 154 156 155 155 157 159 157 156 158 161 161 159 159 159 159 158 159 162 163 163 164 165 165 163 159 155 152 150 147 143 144 146 145 143 142 141 138 134 130 127 124 122 120 118 116 114 113 111 108 103 102 101 98 94 90 86 82 75
183 129 150 165 172 181 188 170 164 177 182 203 308 334 275 233 207 186 185 183 177 175 178 186 189 188 185 181 182 182 176 173 169 163 164 165 164 164 159 155 154 155 155 157 159 157 155 158 160 160 160 158 158 159 158 157 160 161 160 161 162 162 161 158 155 153 151 148 147 148 148 147 145 143 142 139 137 133 130 127 125 123 121 119 118 116 114 110 107 106 104 101 97 91 86 83 76
185 158 173 187 172 148 188 188 138 149 157 164 167 264 263 250 204 189 193 186 179 180 184 192 194 186 182 182 181 179 174 173 168 163 164 162 160 161 158 153 153 156 157 157 159 157 157 159 161 161 161 159 159 159 159 158 159 161 161 160 161 161 160 157 155 155 152 149 151 150 149 149 147 145 143 140 138 136 133 131 128 126 125 123 121 120 118 114 111 110 107 104 101 94 87 82 76
167 180 192 185 162 124 162 214 231 121 154 176 157 194 261 255 191 189 196 188 184 185 186 192 192 182 180 181 180 176 172 170 167 162 161 158 155 156 154 151 153 158 157 156 158 158 159 161 162 164 163 162 161 159 158 159 160 162 163 162 162 161 160 158 156 156 153 151 153 153 152 151 148 146 146 142 138 137 136 134 131 129 128 126 125 123 121 116 114 114 111 108 104 95 87 81 76
Height
773 772 770 769 766 765 767 768 787 796 798 810 809 806 799 788 787 786 785 782 782 778 771 772 770 771 775 777 776 773 775 780 785 794 796 784 781 783 784 786 788 790 793 796 799 802 804 806 808 810 811 812 813 813 814 815 815 815 816 817 817 817 816 816 817 817 818 819 819 820 821 822 822 822 823 823 823 823 823 823 823 823 823 823 823 823 823 823 823 823 823 824 825 825 826 826 827
773 771 768 769 765 767 773 774 797 808 807 815 808 803 795 786 790 789 785 782 781 776 771 771 770 772 773 771 771 774 779 780 779 782 784 783 784 786 786 787 789 791 793 797 799 802 804 806 809 810 812 813 813 814 815 815 816 816 817 818 818 818 818 818 818 818 819 820 820 821 822 823 823 823 823 824 824 824 824 824 824 824 824 824 824 823 823 823 823 824 825 825 826 826 827 827 827
772 771 768 769 766 769 776 781 801 813 815 819 809 799 791 790 793 788 781 777 774 772 772 772 773 774 775 776 775 778 782 781 779 781 784 785 785 788 790 789 790 792 794 797 799 802 804 806 809 811 812 813 814 815 816 816 817 817 818 819 820 819 819 819 819 820 820 821 821 822 823 823 824 824 824 824 824 825 825 825 825 825 824 824 824 824 824 824 824 825 825 826 826 827 827 827 828
773 772 770 769 772 776 784 795 805 812 816 817 811 797 790 790 789 786 779 773 771 772 775 775 777 774 775 781 778 779 783 781 779 781 785 786 787 788 790 792 792 792 794 796 799 801 804 806 809 811 812 813 815 816 816 817 818 818 819 820 821 821 821 820 820 821 821 822 822 823 824 824 824 824 825 825 825 825 825 825 825 825 824 824 824 824 824 824 825 825 825 826 826 827 827 828 828
773 773 772 770 780 786 792 805 808 812 811 809 806 794 788 786 784 785 780 774 771 773 775 777 781 775 773 778 777 780 781 781 780 781 784 786 788 789 791 793 793 793 795 796 799 801 804 806 809 810 812 813 815 816 817 818 818 819 820 821 821 822 822 821 821 821 822 822 823 824 824 824 825 825 825 825 825 825 825 825 825 825 825 825 825 825 824 825 825 826 826 826 827 827 828 828 828
773 773 772 771 780 786 795 809 810 811 803 799 800 789 783 780 780 782 779 776 772 773 773 775 780 777 779 777 775 779 778 779 781 781 784 786 789 791 792 794 795 795 795 797 799 801 804 807 808 810 812 814 815 816 817 818 819 820 821 821 822 822 823 822 822 822 822 823 824 824 825 825 825 825 825 825 825 825 825 825 825 825 825 825 825 825 825 825 826 826 827 827 827 827 828 828 829
773 775 776 779 785 788 802 812 810 810 799 794 795 787 781 777 777 779 780 780 777 775 772 774 775 778 784 780 778 778 775 777 779 783 784 786 790 792 793 794 796 796 796 798 799 802 804 807 808 810 812 814 815 816 818 818 819 820 821 822 823 823 823 823 823 823 823 824 825 825 825 825 825 825 825 825 825 825 825 825 825 825 826 826 826 826 826 826 826 826 827 827 828 828 828 829 829
774 778 782 788 796 799 808 812 809 809 799 792 790 784 780 776 776 777 779 781 782 777 772 773 773 779 785 780 784 782 777 780 780 784 786 788 792 794 795 795 796 797 798 799 800 803 805 807 808 811 812 814 815 817 818 819 820 821 822 822 823 824 824 824 823 824 824 825 825 825 825 825 825 825 825 825 825 825 825 825 825 826 826 826 826 826 826 826 827 827 827 828 828 828 829 829 829
775 780 786 793 803 807 811 812 809 806 799 791 786 781 777 774 775 776 776 776 778 775 771 772 773 781 785 783 789 785 782 784 783 787 788 791 794 795 797 797 796 797 799 800 802 803 805 808 809 811 813 814 816 817 819 820 821 821 822 823 823 824 824 824 824 824 824 825 825 826 826 825 825 825 825 825 825 825 825 825 826 826 826 827 827 827 827 827 827 827 828 828 828 829 829 829 829
779 783 789 798 806 812 816 814 809 804 797 789 785 779 776 774 773 774 775 776 774 774 773 771 775 782 785 790 793 788 788 787 786 791 792 793 795 796 798 799 798 797 800 802 803 804 806 809 810 812 813 815 816 818 819 820 821 822 822 823 824 824 824 825 824 825 825 825 826 826 826 826 826 825 825 825 825 825 825 826 826 827 827 827 827 827 827 827 828 828 828 828 829 829 829 829 829
786 787 789 802 810 816 817 812 807 801 794 789 785 777 774 772 772 773 772 775 773 775 776 772 779 785 788 794 796 792 791 788 787 792 795 795 796 798 799 801 801 798 799 802 804 805 807 809 810 812 813 815 816 818 819 821 821 822 823 823 824 825 825 825 825 825 825 826 826 826 826 826 826 826 826 826 826 826 826 826 827 827 827 828 828 828 828 828 828 828 828 828 829 829 829 830 830
790 793 792 804 810 810 810 808 804 799 795 792 786 774 770 770 771 772 771 774 774 777 777 774 779 782 792 799 797 795 793 792 791 792 796 796 797 799 800 801 803 802 801 802 804 805 806 808 810 812 813 814 816 817 819 820 822 822 823 823 824 825 825 825 825 825 825 826 826 826 826 826 826 826 827 826 826 826 826 827 827 828 828 828 829 829 829 829 829 829 829 829 829 830 830 830 830
788 794 795 803 805 805 806 807 802 799 798 791 784 772 768 770 770 769 771 774 774 778 775 771 773 778 794 800 796 796 795 795 794 794 796 797 798 799 801 801 802 803 802 802 803 804 805 807 809 811 813 814 815 817 818 820 821 822 823 824 825 825 826 826 826 826 826 827 827 827 827 827 827 827 827 827 827 827 827 827 828 828 829 829 829 830 830 830 830 830 830 830 830 830 830 830 830
784 789 792 800 804 802 801 804 801 801 798 786 779 772 769 769 766 764 769 774 774 774 770 766 770 779 793 799 799 797 795 796 795 796 796 798 799 799 801 801 802 803 802 802 802 803 804 806 808 810 812 814 815 816 818 819 821 822 823 824 825 826 826 826 826 826 827 827 828 828 828 828 828 828 828 828 828 828 828 828 828 829 829 830 830 830 830 831 831 830 830 830 830 830 831 831 831
782 786 790 798 802 800 798 799 798 799 795 783 776 772 770 766 762 764 767 772 771 766 766 767 769 778 786 792 797 794 792 795 795 796 797 799 800 801 801 801 803 803 803 803 803 804 805 807 809 811 813 814 815 816 818 819 821 822 823 824 825 826 826 826 826 827 828 828 828 829 829 829 829 829 828 828 828 829 829 829 829 829 830 830 830 831 831 831 831 831 831 831 831 831 831 831 831
779 783 792 799 801 801 799 796 795 798 790 779 773 771 774 766 760 766 764 766 770 766 767 771 770 774 779 781 785 786 790 793 794 796 796 799 801 802 803 803 805 805 806 805 805 806 806 808 810 812 813 814 816 817 818 819 820 822 823 824 825 826 826 826 826 827 828 828 829 829 830 830 830 830 829 829 829 829 830 830 830 830 830 831 831 831 831 832 832 831 831 831 831 831 831 831 831
778 784 796 802 802 800 797 793 793 793 783 775 772 771 776 770 763 765 761 762 770 771 771 773 771 771 775 777 778 783 789 791 793 795 795 799 801 803 805 806 807 807 807 806 806 806 807 809 810 812 813 815 816 817 819 819 820 821 822 823 824 825 826 826 827 827 828 828 829 830 830 830 830 830 830 830 830 830 830 830 831 831 831 831 832 832 832 832 832 832 832 832 832 832 831 831 831
780 789 797 801 801 796 789 786 783 783 780 775 771 770 776 775 769 765 765 769 773 774 775 775 774 772 774 776 780 785 789 791 792 793 794 798 800 803 806 807 807 806 805 805 806 807 808 809 810 811 813 814 816 817 819 820 821 821 822 823 824 825 826 826 827 828 828 829 830 830 831 831 831 831 831 831 831 831 831 831 831 832 832 832 832 832 832 832 832 832 832 832 832 832 832 831 831
781 788 794 795 793 787 779 778 777 777 777 773 769 769 774 773 770 767 771 777 777 778 781 780 781 780 780 782 786 790 792 793 794 794 797 802 804 805 806 806 806 804 804 805 807 808 808 809 810 811 812 813 815 817 819 820 821 822 823 823 824 825 825 826 827 828 829 829 830 830 831 831 831 831 831 831 831 832 832 832 832 832 832 832 832 832 832 832 832 832 832 832 832 832 832 831 831
780 784 790 789 784 781 776 776 775 773 772 772 771 770 772 770 768 769 773 779 779 779 782 784 787 787 787 788 789 791 794 796 799 801 805 810 810 807 804 804 805 805 806 806 807 808 808 807 809 810 811 812 814 815 817 819 821 822 823 823 824 825 825 827 828 829 829 830 831 831 831 832 832 832 832 832 832 833 832 833 832 833 833 833 833 833 833 833 832 832 832 832 832 832 832 831 831
778 779 784 781 779 780 776 774 772 770 771 773 772 772 772 767 766 770 774 782 782 777 777 780 784 785 786 787 787 789 793 797 802 804 805 807 809 809 807 807 808 809 809 808 807 806 806 806 807 809 811 812 813 814 816 818 821 822 823 823 824 825 826 827 828 829 830 831 831 831 832 832 833 833 833 833 833 833 833 833 833 833 833 833 833 833 833 833 833 832 832 832 832 832 832 832 831
776 775 775 774 775 778 774 771 771 770 771 773 775 775 770 765 766 769 772 779 779 774 774 774 775 777 779 783 787 790 793 798 801 804 806 807 811 813 811 809 809 810 811 808 806 805 805 806 807 808 810 812 812 813 815 818 820 821 822 823 824 825 826 827 829 830 830 831 832 832 832 832 833 833 833 834 834 834 834 834 833 833 833 833 833 833 833 832 832 832 832 832 832 832 832 832 832
775 773 771 772 772 774 771 768 770 769 771 775 774 771 767 768 770 769 771 776 775 771 770 770 772 775 778 782 787 791 794 798 802 806 808 810 814 814 809 807 807 808 809 807 805 804 805 807 808 809 811 812 814 814 815 817 819 820 821 822 824 825 826 827 829 830 831 832 832 832 832 832 833 833 834 834 834 834 834 834 834 834 834 833 833 833 833 832 833 832 832 832 832 832 832 832 832
775 774 771 771 771 771 768 766 767 768 771 771 769 768 769 772 773 773 777 779 775 771 768 770 774 777 780 784 787 791 794 797 800 801 798 797 801 806 804 802 802 804 805 804 803 803 805 807 808 809 811 813 814 815 816 817 818 819 820 822 824 825 826 827 828 829 831 832 833 833 833 833 833 833 834 834 835 835 835 834 834 834 834 834 833 833 833 833 833 833 833 832 832 832 832 832 832
773 774 772 770 770 769 767 766 766 767 769 768 769 771 770 771 773 778 783 781 776 773 771 772 775 779 782 784 787 790 793 795 795 792 790 789 790 797 800 798 798 800 801 801 800 801 803 805 807 809 810 812 814 816 816 817 818 818 820 821 823 825 826 827 828 830 831 832 833 834 833 833 833 833 834 834 835 835 835 835 834 834 834 834 833 833 833 833 833 833 833 833 832 832 832 832 832
769 771 771 769 769 768 767 767 766 767 768 767 771 773 769 768 772 782 786 782 779 775 774 774 776 780 783 785 786 787 789 791 791 789 790 791 788 789 794 797 797 798 799 799 799 799 801 803 805 807 809 811 813 815 816 817 817 818 819 821 823 825 826 827 828 830 831 833 834 835 834 833 832 832 833 834 835 835 835 835 835 834 834 834 834 834 833 833 833 833 833 833 832 832 832 831 831
764 767 769 768 769 767 767 768 765 767 767 767 772 773 768 767 772 785 787 781 780 778 777 777 777 781 783 785 785 785 787 787 788 789 791 794 791 788 791 796 798 799 800 799 799 799 801 803 805 807 809 811 813 815 816 816 817 818 819 821 823 825 826 827 828 830 831 833 835 835 835 833 832 832 832 833 834 835 836 836 836 835 835 834 834 834 833 833 833 833 833 833 832 832 831 831 830
763 765 768 768 768 767 766 767 766 767 767 764 769 770 768 770 775 783 784 781 781 780 780 780 779 782 783 784 785 785 786 786 787 788 788 790 790 788 790 793 796 799 800 800 800 800 801 803 805 807 809 810 812 814 815 816 817 818 819 821 823 825 826 827 828 830 831 833 835 835 835 834 833 832 832 832 833 835 836 836 836 836 835 835 834 834 834 833 833 833 833 833 832 831 830 830 830
762 764 770 770 769 768 765 765 765 766 767 760 765 775 774 775 780 781 780 781 782 782 782 782 782 783 784 785 786 786 787 788 788 788 787 786 785 787 790 793 796 798 799 801 802 802 802 804 805 807 809 811 812 813 814 815 816 818 819 821 823 824 826 827 828 829 831 833 834 835 835 835 834 832 832 832 833 834 836 836 836 836 836 835 835 834 834 834 833 834 833 833 831 830 829 829 829
764 764 769 772 775 771 761 761 764 765 764 756 767 784 780 779 784 780 778 781 783 785 784 784 785 785 786 786 787 788 788 789 788 788 788 787 786 787 790 793 795 797 800 802 803 803 803 804 806 808 810 811 812 814 814 815 817 818 820 822 823 825 826 827 828 829 830 832 833 834 835 835 834 833 832 832 833 834 835 836 836 836 836 836 835 835 835 834 834 834 833 832 830 829 829 829 829
765 766 769 773 779 772 757 757 763 764 761 754 767 783 779 779 785 779 778 781 782 786 787 786 786 786 787 787 787 789 789 789 789 790 791 789 788 789 791 794 795 798 800 802 803 803 804 805 807 808 810 812 813 814 814 816 817 819 821 822 823 825 826 827 828 829 830 831 833 834 835 835 834 834 833 832 833 833 834 835 836 837 837 837 836 836 835 834 834 834 833 831 829 829 829 829 830
766 771 774 773 776 772 758 754 758 761 759 755 766 781 782 783 784 780 779 781 782 786 787 787 787 787 788 788 788 790 790 790 790 791 792 791 790 790 792 794 795 797 800 802 803 803 805 806 807 809 810 812 813 814 815 816 817 819 821 822 823 825 826 827 828 829 830 831 833 834 834 834 834 834 833 832 832 833 834 835 836 837 838 837 836 836 835 835 835 834 832 830 829 829 829 830 830
769 771 774 772 774 775 765 754 752 755 757 758 764 775 782 782 781 780 779 781 784 786 787 787 787 787 787 788 789 789 790 790 791 791 791 792 792 791 792 793 794 797 800 802 803 804 806 807 808 810 811 812 812 813 814 816 818 819 821 822 823 825 826 827 828 829 830 831 832 833 834 834 834 834 833 833 832 833 834 836 837 837 838 837 837 836 836 836 835 833 831 829 829 829 830 830 830
773 771 773 771 771 775 771 759 752 752 756 760 761 767 776 779 778 780 779 781 784 785 786 787 787 787 787 788 789 789 790 790 790 790 791 793 793 792 793 794 796 798 800 802 803 805 807 808 810 810 811 812 812 813 814 816 817 819 821 822 823 825 826 828 828 829 830 831 833 834 835 834 834 833 833 833 833 834 835 836 836 837 837 837 837 837 836 836 834 832 830 829 830 830 830 830 830
769 774 774 771 769 771 770 762 754 753 755 759 763 770 779 781 780 781 781 782 784 785 785 785 786 787 788 789 789 790 790 790 790 790 791 792 793 793 794 796 798 798 800 802 804 806 807 810 811 811 811 812 812 814 814 816 817 819 821 822 824 826 828 829 829 830 831 832 833 834 835 835 835 834 833 833 834 834 835 836 836 837 838 838 837 836 835 835 833 831 830 830 831 831 831 831 830
763 767 768 768 768 768 765 757 750 751 757 761 762 769 780 784 783 783 783 783 785 787 787 786 787 787 788 789 789 790 790 789 789 790 791 792 793 794 794 796 797 799 801 803 805 807 809 810 812 812 812 812 813 814 815 817 818 820 822 824 826 827 829 830 830 831 832 833 834 835 835 835 835 835 834 834 834 834 835 836 837 837 837 836 835 834 834 834 833 831 831 831 831 831 831 830 830
761 762 762 762 765 766 760 753 747 747 755 763 764 769 779 783 783 784 784 785 787 788 788 788 787 787 787 788 789 790 790 789 788 789 790 791 792 793 794 796 797 800 802 804 806 808 809 811 812 812 812 813 814 815 817 818 819 822 824 826 827 829 830 831 831 832 833 833 834 835 835 836 836 835 835 834 834 834 835 835 836 836 836 834 834 834 834 833 832 831 831 831 831 830 830 829 829
762 764 763 764 765 762 756 751 748 745 752 768 774 776 783 783 783 786 785 787 788 787 787 786 786 786 787 788 789 789 789 788 788 788 789 790 792 793 794 796 797 800 802 804 806 808 810 811 812 813 813 814 815 816 817 819 822 824 825 827 828 829 831 831 832 833 833 834 834 835 836 836 835 835 834 834 833 833 834 835 835 836 835 835 835 835 834 832 831 830 830 830 830 830 830 830 829
763 767 767 769 766 761 756 750 749 749 754 773 781 779 786 786 784 787 786 787 787 787 786 785 784 785 786 787 787 788 788 788 787 787 788 790 792 794 795 797 799 800 803 805 807 808 809 811 812 812 813 814 815 816 817 820 823 825 826 827 828 830 831 832 833 833 834 834 835 835 836 836 835 835 834 834 833 833 834 835 836 836 836 835 835 834 832 830 829 830 830 831 831 831 831 831 830
763 767 771 771 765 763 761 755 758 760 760 772 779 782 787 787 786 788 786 786 787 787 787 785 785 785 784 784 784 785 785 786 786 787 788 790 792 794 796 798 799 801 804 805 807 808 810 811 812 812 813 814 815 816 818 820 823 825 827 828 828 830 832 833 833 834 834 834 835 835 835 835 835 835 834 834 834 834 835 836 837 836 835 834 833 831 830 829 830 831 831 831 831 832 832 833 832
764 765 769 769 764 762 759 758 763 767 769 771 776 788 793 787 788 789 786 786 787 787 787 786 785 785 784 784 784 784 783 784 786 787 789 789 791 793 796 797 799 801 803 805 807 808 810 811 811 812 813 814 815 816 819 821 822 824 826 828 829 831 832 833 833 834 835 835 835 835 835 835 835 835 835 834 834 835 835 835 835 834 833 833 831 830 830 831 832 832 832 832 832 833 833 833 833
765 762 762 762 761 759 757 760 762 768 780 775 770 787 796 788 787 789 786 786 787 787 787 786 785 785 785 785 785 785 785 786 786 787 787 788 791 794 796 797 799 800 803 805 807 808 810 810 811 812 813 815 816 817 820 821 822 823 825 827 829 830 832 833 834 835 835 835 835 835 835 836 836 835 835 835 835 834 834 834 834 833 833 832 832 832 832 833 834 834 834 834 834 834 833 833 834
767 759 755 757 759 758 757 760 760 767 778 773 767 779 792 792 786 785 786 786 787 787 786 785 783 783 784 784 784 784 784 786 787 787 787 787 790 793 795 796 798 800 802 804 806 808 810 810 811 812 813 815 816 818 819 821 822 823 825 826 828 829 831 833 834 835 835 835 835 835 836 836 836 836 835 835 835 834 834 834 834 834 834 834 834 834 835 835 836 836 836 835 834 835 834 833 835
763 753 749 755 758 759 759 760 762 767 771 774 773 773 787 797 785 778 783 785 787 787 785 783 781 781 782 782 782 782 783 784 785 786 786 787 789 791 793 795 798 800 802 804 806 808 810 810 811 812 813 815 817 818 819 821 822 824 825 827 829 830 831 833 835 835 836 836 836 836 837 837 837 837 836 836 835 836 836 836 836 836 836 837 836 836 837 838 838 838 837 836 835 835 835 835 836
756 747 746 751 755 756 756 758 762 766 771 780 781 775 785 795 782 775 781 784 786 784 780 779 778 779 779 779 780 781 781 782 783 785 785 787 789 791 793 795 798 800 801 803 805 807 809 810 811 812 814 815 817 819 820 821 822 824 825 826 829 831 832 833 835 835 836 836 836 837 838 838 838 838 837 837 837 837 838 838 838 838 838 838 838 838 839 839 839 838 838 837 837 837 837 838 838
746 742 744 748 753 754 755 760 762 766 774 779 779 776 782 789 782 778 782 783 781 776 774 775 775 775 776 777 778 779 780 782 783 784 785 787 789 791 793 796 798 800 801 803 805 807 809 810 811 813 814 815 817 819 820 822 823 824 825 827 828 830 832 834 835 835 836 836 837 838 838 839 839 839 838 838 839 839 839 839 839 839 839 839 840 840 840 840 839 839 839 839 839 839 840 840 841
741 742 746 751 755 754 757 762 763 773 780 773 770 772 775 782 780 776 774 767 762 763 769 772 772 772 773 774 776 777 779 781 783 785 786 788 789 791 793 795 798 800 801 803 805 807 809 810 811 813 814 816 818 820 821 823 824 825 826 827 828 830 832 833 834 835 836 837 838 839 839 840 840 840 839 839 840 840 840 840 840 840 840 840 840 840 841 840 840 840 840 841 841 842 843 843 844
739 744 750 759 765 760 764 769 770 782 782 765 763 768 773 779 774 768 761 751 749 754 760 764 765 766 768 770 773 774 777 780 782 784 786 787 788 790 792 795 798 799 801 803 804 806 808 809 811 812 814 816 818 820 822 823 824 825 826 827 829 830 832 833 834 836 837 838 839 839 840 841 841 841 840 840 841 841 841 841 841 841 841 841 841 841 841 841 842 842 843 843 844 845 846 846 847
741 747 754 767 777 776 779 780 778 783 773 758 759 766 775 774 759 753 752 745 745 746 747 751 755 759 762 766 769 772 776 778 780 782 784 785 786 788 791 794 796 798 799 802 803 805 807 808 810 812 814 817 819 821 822 823 824 825 826 827 829 831 833 834 835 837 838 839 839 840 840 841 842 842 842 842 843 843 842 842 842 842 842 842 842 842 843 843 844 844 845 846 847 848 848 849 849
743 748 755 766 777 784 789 786 783 781 766 755 758 765 775 769 748 741 742 738 737 736 739 745 750 755 758 762 766 770 774 776 778 780 782 783 784 786 790 793 795 797 799 800 802 805 806 808 810 812 814 817 819 821 822 823 824 825 826 828 830 832 834 835 837 838 839 839 840 840 841 842 843 843 843 844 844 844 844 843 843 843 843 843 844 844 844 845 846 846 847 848 849 850 851 851 852
741 743 750 758 762 768 777 778 776 773 762 760 766 768 768 760 746 740 735 731 733 736 741 747 752 757 760 763 767 769 772 774 776 778 780 782 784 786 789 792 794 796 798 799 802 804 806 807 810 811 814 817 818 820 822 823 824 825 826 828 830 832 834 836 838 839 839 840 840 841 842 843 844 844 845 845 846 845 845 844 844 844 845 845 845 846 846 847 848 848 849 850 851 853 853 854 855
741 740 748 753 748 748 760 766 764 761 760 763 768 765 757 747 739 739 735 732 735 740 744 750 754 758 761 765 767 768 770 772 774 776 778 781 783 785 788 790 793 795 797 798 801 803 805 806 809 811 814 816 818 820 821 822 824 825 827 829 831 833 835 837 838 839 840 841 841 842 843 845 845 845 846 846 846 846 845 845 845 846 846 847 847 848 848 849 850 850 851 852 854 855 856 856 857
741 743 745 743 737 737 751 763 764 764 763 763 764 760 756 750 741 738 737 736 739 742 746 751 753 756 760 763 764 766 768 770 772 774 776 779 782 784 786 789 791 794 796 798 801 803 804 806 809 812 814 816 818 820 821 823 824 825 827 829 831 833 835 837 838 839 840 841 842 842 844 845 846 847 847 847 847 847 846 846 846 847 848 849 849 850 851 852 852 853 854 855 856 857 858 858 859
735 743 736 734 738 741 747 758 766 770 767 764 764 760 757 755 747 743 743 743 744 745 746 750 753 755 758 760 762 764 766 768 771 773 775 778 781 783 785 788 790 793 795 798 801 803 804 806 809 812 814 816 818 820 821 822 824 825 827 829 832 834 835 837 838 839 840 841 842 843 845 846 847 847 848 848 847 847 847 848 848 849 850 850 851 852 853 854 854 855 857 858 859 859 859 860 861
722 728 724 732 748 751 752 757 762 768 770 767 765 764 759 752 747 748 748 746 746 746 746 749 750 751 753 756 760 762 764 768 770 772 775 777 781 782 785 788 790 793 795 798 802 803 804 807 810 812 815 816 818 820 821 823 824 825 827 830 832 834 836 837 838 840 840 841 842 843 845 846 847 848 848 848 848 848 848 849 849 850 851 852 853 854 855 856 856 858 859 859 861 861 861 861 862
718 722 722 727 737 742 746 752 754 757 765 768 766 766 758 742 739 743 740 738 740 742 745 745 743 745 749 752 756 758 762 765 767 770 773 776 779 782 784 787 790 793 796 798 802 803 805 808 810 813 815 816 818 820 821 823 824 826 828 830 833 834 836 837 839 840 840 841 842 844 845 847 848 848 849 849 849 849 849 850 850 851 852 853 854 855 856 858 858 859 860 861 862 862 862 863 863
724 729 730 728 729 734 737 744 748 745 753 765 767 766 751 727 726 733 730 729 732 733 736 737 737 741 745 748 752 755 759 763 765 768 771 774 778 781 784 786 789 794 796 799 802 803 805 808 810 812 814 816 818 820 821 823 824 826 829 831 833 834 836 837 839 840 841 841 843 845 846 847 848 849 849 849 850 850 850 850 851 852 853 854 856 857 858 859 860 861 862 863 863 864 864 864 864
721 726 729 728 728 735 742 750 749 738 742 754 758 757 738 714 715 723 722 724 725 725 727 730 733 737 741 746 749 753 757 760 764 767 770 774 777 781 784 786 790 794 796 798 801 803 806 808 810 812 814 815 817 819 821 823 825 827 829 831 833 835 836 837 839 840 841 842 843 845 846 848 849 850 850 850 850 851 851 851 852 853 855 856 857 858 860 860 861 862 863 864 865 865 864 865 865